[[{"header":{"parameterUnit":"m.s-1","parameterCategory":1,"la1":30.2991,"la2":30.254,"lo1":-89.0895,"lo2":-89.0444,"dy":0.0017,"dx":0.0017,"nx":28,"ny":28,"refTime":"2025-03-09T21:00:00:Z","depth":0,"parameterNumber":2,"parameterNumberName":"U-component_of_WINDS"},"data":[0,0,0,0,0,0,0,0,0,0,0,0,0,0,0,0,0,0,0,0,0,0,0,0,0,0,0,0,0,0,0,0,0,0,0,0,0,0,0,0,0,0,0,0,0,0,0,0,0,0,0,0,0,0,0,0,0,0,1.0677,1.0677,0,1.0686,1.0686,1.0687,1.0669,1.0668,1.0668,1.0667,1.0676,1.0677,1.0678,0,0,0,0,0,0,0,0,0,0,0,0,0,1.0643,1.0643,1.0677,1.0677,1.0677,1.0686,1.0686,1.0687,1.0669,1.0668,1.0667,1.0667,1.0676,1.0677,1.0678,0,0,0,0,0,0,0,0,0,0,0,0,0,1.0655,1.0644,1.0677,1.0669,1.0669,1.0686,1.0686,1.0687,1.0669,1.0668,1.0667,1.0666,1.0676,1.0677,1.0678,1.0703,0,0,1.0682,1.0682,0,0,0,0,0,0,0,0,1.0655,1.0657,1.067,1.067,1.0669,1.0675,1.0678,1.0692,1.0669,1.0669,1.0667,1.0666,1.0677,1.0678,1.0681,1.0703,1.0704,1.0682,1.0682,1.0683,1.0683,0,0,0,0,0,0,0,1.0654,1.0656,1.0681,1.0671,1.067,1.0665,1.0666,1.068,1.0678,1.0669,1.0668,1.0669,1.0676,1.068,1.0681,1.0704,1.0682,1.0683,1.0683,1.0684,1.0747,1.0748,0,0,0,0,0,0,1.0654,1.0656,1.068,1.0681,1.066,1.0667,1.0668,1.0674,1.0677,1.0677,1.067,1.0668,1.0679,1.068,1.0682,1.0711,1.0683,1.0684,1.0685,1.0746,1.0747,1.0748,0,0,0,0,0,0,1.0653,1.0656,1.068,1.0668,1.067,1.0668,1.0676,1.0675,1.0679,1.0678,1.0677,1.0675,1.0678,1.068,1.0698,1.0711,1.0685,1.0686,1.0745,1.0746,1.0748,1.077,0,0,0,0,0,0,1.0652,1.0656,1.0666,1.0668,1.0671,1.0696,1.0677,1.0676,1.0681,1.0679,1.0682,1.0682,1.0678,1.0696,1.0699,1.0712,1.0687,1.0744,1.0746,1.0747,1.0769,1.0773,1.0776,0,0,0,0,0,1.0651,1.0672,1.0666,1.0669,1.0683,1.0697,1.0699,1.0693,1.0682,1.0692,1.0691,1.0682,1.0709,1.0698,1.0701,1.0715,1.0743,1.0745,1.0747,1.0767,1.0772,1.0776,0,0,0,0,0,0,1.067,1.0672,1.0666,1.0688,1.0692,1.0694,1.0706,1.0698,1.0706,1.0704,1.0697,1.0697,1.0717,1.0718,1.0705,1.074,1.0724,1.0727,1.0738,1.0743,1.0747,1.0746,1.0688,0,0,0,0,0,1.0677,1.0689,1.0689,1.0708,1.0711,1.0708,1.0714,1.0709,1.0714,1.0715,1.0716,1.072,1.073,1.0737,1.0745,1.0769,1.0769,1.078,1.0784,1.0787,1.0789,1.0801,1.0806,1.0755,1.0755,1.0755,0,0,1.0691,1.0694,1.0701,1.0712,1.0715,1.0727,1.071,1.0723,1.0731,1.0717,1.0734,1.0735,1.0739,1.076,1.0769,1.0762,1.0803,1.0789,1.0792,1.0793,1.0804,1.0809,1.0813,1.0757,1.0757,1.0756,0,0,1.0723,1.0726,1.0742,1.0746,1.0751,1.0749,1.0753,1.0755,1.0755,1.0772,1.0762,1.0772,1.0789,1.0793,1.0797,1.083,1.0822,1.0833,1.0853,1.0865,1.0869,1.0872,1.0884,1.0888,1.0836,1.0836,1.0836,0,1.074,1.0757,1.0752,1.0765,1.0771,1.0759,1.0775,1.0779,1.0786,1.079,1.0782,1.0802,1.0805,1.0826,1.0834,1.0838,1.0842,1.0833,1.0869,1.0872,1.0875,1.0886,1.0891,1.0837,1.0837,1.0837,1.0837,0,1.0778,1.079,1.0803,1.081,1.0817,1.0832,1.0829,1.0836,1.0831,1.083,1.0847,1.085,1.0859,1.0863,1.0859,1.0884,1.0879,1.087,1.0854,1.0882,1.0892,1.0896,1.0839,1.0839,1.0838,1.0838,0,0,1.0821,1.0826,1.0831,1.0835,1.0839,1.0849,1.0863,1.0872,1.0879,1.0884,1.0896,1.0911,1.0902,1.0907,1.0902,1.0913,1.0939,1.0902,1.0902,1.0909,1.0968,1.0975,1.098,1.0934,1.0935,1.0935,1.0967,0,1.0853,1.0878,1.0874,1.0898,1.0909,1.0899,1.0911,1.0915,1.0915,1.0924,1.0923,1.0934,1.0922,1.0924,1.0935,1.0934,1.0951,1.0932,1.0945,1.0945,1.0944,1.0985,1.0993,1.1023,1.0971,1.0972,1.0973,0,1.0893,1.09,1.0926,1.0929,1.0934,1.0945,1.0953,1.0963,1.0967,1.0966,1.0971,1.0965,1.0979,1.0964,1.0983,1.097,1.0975,1.0976,1.0977,1.0978,1.096,1.0987,1.1032,1.1036,1.0979,1.0978,1.0978,0,1.0922,1.0939,1.0956,1.096,1.0964,1.0972,1.0974,1.0978,1.0984,1.0991,1.0995,1.1003,1.1008,1.1015,1.1011,1.1,1.1031,1.1015,1.103,1.103,1.1037,1.1036,1.1083,1.1041,1.1041,1.104,1.104,0,1.0957,1.0974,1.0969,1.098,1.0998,1.0993,1.101,1.1011,1.1015,1.1025,1.1016,1.1026,1.1021,1.103,1.1027,1.1044,1.1046,1.1045,1.1044,1.1046,1.1046,1.1049,1.1047,1.1042,1.1041,1.1041,1.1041,0,1.0993,1.0991,1.1009,1.1012,1.1013,1.1026,1.1028,1.1038,1.1037,1.105,1.1053,1.1052,1.1062,1.1059,1.1071,1.1069,1.109,1.1086,1.1088,1.1087,1.1102,1.1101,1.1152,1.1159,1.1113,1.1113,1.1113,0,1.1015,1.1028,1.1032,1.1038,1.1041,1.1052,1.1058,1.1053,1.106,1.1066,1.1076,1.1086,1.1094,1.1111,1.1111,1.112,1.1116,1.1134,1.1118,1.1119,1.1116,1.1115,1.1117,1.1137,1.1137,1.1138,1.1138,0,1.1056,1.1054,1.1063,1.1072,1.108,1.1087,1.1093,1.1099,1.1094,1.1102,1.1113,1.1119,1.1132,1.1142,1.115,1.1152,1.1144,1.1143,1.1147,1.1149,1.1149,1.1149,1.1097,1.1142,1.1142,1.1141,1.1141,1.1141,1.1085,1.1096,1.11,1.1111,1.1115,1.1121,1.113,1.1131,1.114,1.115,1.1146,1.1159,1.1163,1.1174,1.1177,1.1186,1.118,1.1185,1.1187,1.1188,1.119,1.1148,1.1188,1.1188,1.1188,1.1188,1.1187,0,1.1125,1.1127,1.1137,1.1146,1.1154,1.1147,1.1153,1.1161,1.1172,1.1177,1.1185,1.1198,1.1208,1.1208,1.1217,1.1225,1.1222,1.1228,1.1227,1.1227,1.1195,1.1191,1.123,1.123,1.123,1.123,1.123,1.123,1.1146,1.1164,1.1163,1.1182,1.1184,1.1197,1.1201,1.1206,1.121,1.1225,1.1233,1.1234,1.1237,1.1246,1.1255,1.1255,1.1258,1.1265,1.1264,1.1234,1.123,1.1226,1.1221,1.1266,1.1266,1.1295,1.1295,1.1295]},{"header":{"parameterUnit":"m.s-1","parameterCategory":1,"la1":30.2991,"la2":30.254,"lo1":-89.0895,"lo2":-89.0444,"dy":0.0017,"dx":0.0017,"nx":28,"ny":28,"refTime":"2025-03-09T21:00:00:Z","depth":0,"parameterNumber":3,"parameterNumberName":"V-component_of_WINDS"},"data":[0,0,0,0,0,0,0,0,0,0,0,0,0,0,0,0,0,0,0,0,0,0,0,0,0,0,0,0,0,0,0,0,0,0,0,0,0,0,0,0,0,0,0,0,0,0,0,0,0,0,0,0,0,0,0,0,0,0,-1.8135,-1.8136,0,-1.8252,-1.8254,-1.8255,-1.8273,-1.8272,-1.8271,-1.827,-1.8391,-1.8395,-1.84,0,0,0,0,0,0,0,0,0,0,0,0,0,-1.7926,-1.793,-1.8134,-1.8136,-1.8137,-1.8252,-1.8254,-1.8255,-1.8273,-1.8272,-1.827,-1.8269,-1.839,-1.8395,-1.84,0,0,0,0,0,0,0,0,0,0,0,0,0,-1.8027,-1.7931,-1.8134,-1.816,-1.8163,-1.8252,-1.8254,-1.8256,-1.8273,-1.8272,-1.827,-1.8268,-1.8388,-1.8394,-1.8401,-1.8472,0,0,-1.842,-1.8423,0,0,0,0,0,0,0,0,-1.8022,-1.8035,-1.8155,-1.8158,-1.8162,-1.8246,-1.8225,-1.8328,-1.8274,-1.8232,-1.827,-1.8268,-1.8344,-1.8354,-1.838,-1.8478,-1.8483,-1.8421,-1.8424,-1.8427,-1.8429,0,0,0,0,0,0,0,-1.8015,-1.803,-1.8181,-1.8156,-1.8161,-1.8166,-1.8179,-1.8245,-1.8296,-1.8235,-1.8237,-1.825,-1.8346,-1.8374,-1.8383,-1.8485,-1.842,-1.8426,-1.843,-1.8432,-1.8648,-1.865,0,0,0,0,0,0,-1.8003,-1.8024,-1.8177,-1.8185,-1.8087,-1.8171,-1.8185,-1.8221,-1.8295,-1.8305,-1.8252,-1.8251,-1.8364,-1.8375,-1.8387,-1.8476,-1.8427,-1.8433,-1.8437,-1.8646,-1.8648,-1.865,0,0,0,0,0,0,-1.7998,-1.8016,-1.8173,-1.8105,-1.8125,-1.8176,-1.8216,-1.8224,-1.8252,-1.8307,-1.8317,-1.827,-1.8363,-1.8378,-1.8451,-1.848,-1.8436,-1.8442,-1.8644,-1.8647,-1.8649,-1.8654,0,0,0,0,0,0,-1.7992,-1.8015,-1.8042,-1.8105,-1.8129,-1.8234,-1.8218,-1.8228,-1.8262,-1.8262,-1.8327,-1.8336,-1.8363,-1.8441,-1.8457,-1.8488,-1.8447,-1.8641,-1.8645,-1.8648,-1.8651,-1.8657,-1.8661,0,0,0,0,0,-1.7985,-1.8038,-1.8043,-1.8061,-1.8164,-1.8236,-1.8249,-1.8278,-1.8265,-1.8293,-1.8329,-1.8334,-1.8475,-1.8449,-1.8467,-1.85,-1.8639,-1.8644,-1.8648,-1.8649,-1.8655,-1.8661,0,0,0,0,0,0,-1.7977,-1.8047,-1.8053,-1.8129,-1.8176,-1.8238,-1.8275,-1.8284,-1.8336,-1.8333,-1.8367,-1.8382,-1.8453,-1.8484,-1.8454,-1.8574,-1.8556,-1.8564,-1.8551,-1.8557,-1.8562,-1.8553,-1.8452,0,0,0,0,0,-1.7984,-1.8036,-1.8095,-1.8156,-1.8179,-1.8223,-1.8255,-1.8273,-1.8324,-1.8344,-1.8385,-1.8434,-1.8489,-1.8525,-1.8579,-1.8656,-1.8671,-1.8688,-1.8693,-1.8697,-1.8703,-1.8747,-1.8756,-1.8664,-1.8664,-1.8664,0,0,-1.7999,-1.8044,-1.8075,-1.8156,-1.8194,-1.8248,-1.824,-1.8296,-1.8337,-1.8353,-1.8424,-1.8456,-1.8513,-1.8588,-1.8623,-1.8616,-1.8732,-1.8702,-1.8705,-1.8709,-1.8752,-1.8761,-1.8769,-1.8667,-1.8667,-1.8666,0,0,-1.8054,-1.8093,-1.8149,-1.8188,-1.8247,-1.8275,-1.8289,-1.835,-1.8372,-1.8444,-1.8457,-1.8506,-1.86,-1.864,-1.8673,-1.8744,-1.8752,-1.8761,-1.8786,-1.8829,-1.8836,-1.8843,-1.8869,-1.8877,-1.8767,-1.8768,-1.8768,0,-1.8066,-1.8147,-1.8176,-1.8233,-1.8269,-1.8285,-1.8342,-1.8379,-1.8452,-1.8477,-1.8467,-1.8587,-1.8626,-1.8711,-1.8729,-1.8755,-1.8772,-1.8754,-1.8833,-1.8839,-1.8846,-1.8871,-1.8881,-1.8768,-1.8768,-1.8768,-1.8768,0,-1.8158,-1.8214,-1.8252,-1.8323,-1.8363,-1.8419,-1.8458,-1.8495,-1.8509,-1.8539,-1.8613,-1.8661,-1.8725,-1.8747,-1.8762,-1.8835,-1.8829,-1.8826,-1.8809,-1.8855,-1.8879,-1.8889,-1.8769,-1.8769,-1.8769,-1.8769,0,0,-1.8212,-1.8298,-1.8311,-1.8344,-1.841,-1.8454,-1.8512,-1.8575,-1.8606,-1.8656,-1.8706,-1.8786,-1.8784,-1.8821,-1.8841,-1.8878,-1.8932,-1.8871,-1.8873,-1.8881,-1.9016,-1.9018,-1.9029,-1.8938,-1.894,-1.8941,-1.9012,0,-1.8275,-1.8378,-1.8406,-1.8493,-1.8546,-1.8563,-1.8613,-1.866,-1.869,-1.8739,-1.8772,-1.8828,-1.8821,-1.8844,-1.8881,-1.8917,-1.896,-1.8913,-1.8985,-1.8987,-1.897,-1.9041,-1.9043,-1.9108,-1.9021,-1.9023,-1.9024,0,-1.8362,-1.8414,-1.8506,-1.8567,-1.859,-1.8634,-1.8695,-1.8741,-1.8795,-1.8814,-1.8856,-1.8873,-1.8934,-1.8914,-1.9,-1.8967,-1.8998,-1.9021,-1.9024,-1.9032,-1.9008,-1.9051,-1.9129,-1.9138,-1.9039,-1.9038,-1.9037,0,-1.8392,-1.8485,-1.8553,-1.858,-1.8652,-1.8683,-1.8714,-1.8766,-1.8802,-1.8855,-1.8879,-1.8938,-1.8971,-1.9017,-1.9049,-1.9032,-1.9133,-1.9115,-1.9151,-1.915,-1.9171,-1.9169,-1.9255,-1.9191,-1.9191,-1.919,-1.919,0,-1.846,-1.8516,-1.8567,-1.8609,-1.8672,-1.8705,-1.8767,-1.8799,-1.8845,-1.8894,-1.8913,-1.8958,-1.8998,-1.9049,-1.9075,-1.9143,-1.9157,-1.9175,-1.9181,-1.9173,-1.9171,-1.9194,-1.9191,-1.9193,-1.9193,-1.9192,-1.9192,0,-1.8504,-1.854,-1.8615,-1.8677,-1.8694,-1.8738,-1.8792,-1.8833,-1.8864,-1.8925,-1.8941,-1.8989,-1.9051,-1.9088,-1.9165,-1.9183,-1.9257,-1.9262,-1.9239,-1.9242,-1.9276,-1.9272,-1.9379,-1.9395,-1.932,-1.9321,-1.9321,0,-1.8545,-1.8588,-1.8655,-1.8689,-1.872,-1.8774,-1.8811,-1.8846,-1.8884,-1.8948,-1.8982,-1.9044,-1.9096,-1.9193,-1.9235,-1.9294,-1.9301,-1.9334,-1.931,-1.9301,-1.9302,-1.9299,-1.9304,-1.9338,-1.9339,-1.9339,-1.934,0,-1.8613,-1.863,-1.8682,-1.8741,-1.8784,-1.8833,-1.8881,-1.8907,-1.895,-1.8992,-1.9054,-1.9094,-1.9173,-1.9235,-1.9299,-1.9332,-1.9343,-1.9347,-1.9359,-1.9351,-1.9337,-1.9346,-1.925,-1.9344,-1.9344,-1.9344,-1.9343,-1.9343,-1.8658,-1.8697,-1.8751,-1.8809,-1.8848,-1.8893,-1.8935,-1.8971,-1.9023,-1.909,-1.9108,-1.9173,-1.9227,-1.9313,-1.9348,-1.94,-1.9395,-1.9412,-1.9416,-1.942,-1.9421,-1.9328,-1.9412,-1.9412,-1.9412,-1.9412,-1.9411,0,-1.8728,-1.8763,-1.8816,-1.8883,-1.8928,-1.8935,-1.8989,-1.9027,-1.9084,-1.9133,-1.9183,-1.9256,-1.9316,-1.9363,-1.9425,-1.9458,-1.9465,-1.9473,-1.9471,-1.9479,-1.9421,-1.9405,-1.9467,-1.9467,-1.9467,-1.9467,-1.9467,-1.9467,-1.877,-1.8837,-1.886,-1.8948,-1.8983,-1.9047,-1.9077,-1.9119,-1.9158,-1.9238,-1.9288,-1.9318,-1.9367,-1.9432,-1.9488,-1.9501,-1.9523,-1.953,-1.9544,-1.9489,-1.9483,-1.9477,-1.9462,-1.9535,-1.9535,-1.9597,-1.9598,-1.9598]}]]